Louisville, KY

7:58 PM EDT on April 28, 2017 (GMT -0400)
Louisville International-Standiford

Weather History for KSDF - March, 2013

Change the Weather History Date:

Sunday, March 24, 2013

  Actual Average Record
Temperature  
Mean Temperature 41 °F 50 °F  
Max Temperature 47 °F 61 °F 88 °F (1910)
Min Temperature 35 °F 40 °F 17 °F (1896)
Degree Days  
Heating Degree Days 24 15  
Month to date heating degree days 585 444  
Since 1 July heating degree days 3667 3685  
Cooling Degree Days 0 0  
Month to date cooling degree days 0 0  
Year to date cooling degree days 0 0  
Moisture  
Dew Point 34 °F    
Average Humidity 65    
Maximum Humidity 92    
Minimum Humidity 37    
Precipitation  
Precipitation 0.57 in 0.14 in 1.00 in (1921)
Month to date precipitation 4.17 3.18  
Year to date precipitation 11.19 9.60  
Snow  
Snow 0.00 in 0.00 in 2.50 in (1990)
Month to date snowfall 1.0 1.2  
Since 1 July snowfall 9.1 12.2  
Snow Depth 0.00 in    
Sea Level Pressure  
Sea Level Pressure 29.56 in    
Wind  
Wind Speed 9 mph (ENE)    
Max Wind Speed 23 mph    
Max Gust Speed 29 mph    
Visibility 5 miles    
Events Rain , Thunderstorm    
T = Trace of Precipitation, MM = Missing Value Source: NWS Daily Summary

Daily Weather History Graph

Daily Weather History Graph

Search for Another Location

Airport or City:

Trip Planner

Search our weather history database for the weather conditions in past years. The results will help you decide how hot, cold, wet, or windy it might be!

Date:

Astronomy

Mar. 24, 2013 Rise Set
Actual Time 7:39 AM EDT 7:58 PM EDT
Civil Twilight 7:13 AM EDT 8:25 PM EDT
Nautical Twilight 6:42 AM EDT 8:56 PM EDT
Astronomical Twilight 6:11 AM EDT 9:27 PM EDT
Moon 5:28 PM EDT (3/24) 5:47 AM EDT (3/24)
Length of Visible Light 13h 11m
Length of Day
12h 18m
Waxing Gibbous, 91% of the Moon is Illuminated
Mar 24
Waxing Gibbous
Mar 27
Full
Apr 3
Last Quarter
Apr 10
New
Apr 18
First Quarter

Hourly Weather History & Observations

Time (EDT) Temp. Windchill Dew Point Humidity Pressure Visibility Wind Dir Wind Speed Gust Speed Precip Events Conditions
12:56 AM 46.9 °F - 24.1 °F 41% 29.81 in 10.0 mi ENE 12.7 mph - N/A   Overcast
1:56 AM 46.0 °F 41.0 °F 23.0 °F 40% 29.81 in 10.0 mi ENE 10.4 mph - N/A   Overcast
2:56 AM 46.0 °F 41.4 °F 21.9 °F 39% 29.82 in 10.0 mi East 9.2 mph - N/A   Overcast
3:56 AM 45.0 °F 40.1 °F 23.0 °F 42% 29.78 in 10.0 mi ENE 9.2 mph - 0.00 in Rain Light Rain
4:56 AM 41.0 °F 36.4 °F 30.9 °F 67% 29.73 in 7.0 mi ENE 6.9 mph - 0.04 in Rain Light Rain
5:56 AM 39.9 °F 33.4 °F 32.0 °F 73% 29.69 in 9.0 mi East 10.4 mph - 0.03 in Rain Light Rain
6:56 AM 39.0 °F 32.8 °F 32.0 °F 76% 29.70 in 5.0 mi NE 9.2 mph - 0.05 in Rain Rain
7:56 AM 37.9 °F 30.9 °F 34.0 °F 86% 29.70 in 6.0 mi North 10.4 mph - 0.03 in Rain Light Rain
8:31 AM 37.4 °F 28.9 °F 33.8 °F 87% 29.69 in 3.0 mi NE 13.8 mph - 0.02 in Rain Heavy Rain
8:36 AM 37.4 °F 28.2 °F 33.8 °F 87% 29.68 in 2.5 mi NE 16.1 mph 21.9 mph 0.05 in Rain Rain
8:46 AM 37.4 °F 28.9 °F 33.8 °F 87% 29.67 in 2.5 mi NE 13.8 mph 21.9 mph 0.09 in Rain Rain
8:56 AM 37.0 °F 27.7 °F 33.1 °F 86% 29.67 in 3.0 mi ENE 16.1 mph 23.0 mph 0.12 in Rain Rain
9:22 AM 37.4 °F 31.4 °F 33.8 °F 87% 29.68 in 5.0 mi NE 8.1 mph - 0.05 in Rain Rain
9:56 AM 37.0 °F 30.4 °F 33.1 °F 86% 29.66 in 5.0 mi NE 9.2 mph - 0.06 in   Overcast
10:56 AM 37.9 °F 32.1 °F 33.1 °F 83% 29.64 in 6.0 mi ENE 8.1 mph - 0.00 in   Light Drizzle
11:56 AM 37.9 °F 30.5 °F 34.0 °F 86% 29.62 in 3.0 mi ENE 11.5 mph - 0.00 in   Light Drizzle
12:18 PM 37.4 °F 29.8 °F 35.6 °F 93% 29.59 in 4.0 mi NE 11.5 mph - 0.00 in   Light Drizzle
12:56 PM 39.0 °F 32.8 °F 35.1 °F 86% 29.56 in 6.0 mi ENE 9.2 mph - 0.00 in   Overcast
1:56 PM 39.0 °F 30.3 °F 35.1 °F 86% 29.46 in 7.0 mi ENE 16.1 mph 23.0 mph N/A   Overcast
2:56 PM 39.0 °F 32.8 °F 35.1 °F 86% 29.50 in 8.0 mi East 9.2 mph - N/A   Overcast
3:56 PM 39.0 °F 33.4 °F 35.1 °F 86% 29.46 in 3.0 mi ENE 8.1 mph - 0.03 in Rain Light Rain
4:17 PM 37.4 °F 32.8 °F 35.6 °F 93% 29.43 in 3.0 mi NE 5.8 mph - 0.00 in Rain , Thunderstorm Light Thunderstorms and Rain
4:32 PM 37.4 °F 32.8 °F 35.6 °F 93% 29.44 in 2.5 mi ENE 5.8 mph - 0.05 in Rain , Thunderstorm Heavy Thunderstorms and Rain
4:39 PM 37.4 °F 32.1 °F 35.6 °F 93% 29.43 in 2.0 mi NE 6.9 mph - 0.08 in Rain Heavy Rain
4:45 PM 39.2 °F 33.0 °F 37.4 °F 93% 29.42 in 1.8 mi NE 9.2 mph - 0.10 in Rain Rain
4:48 PM 39.2 °F 33.6 °F 37.4 °F 93% 29.42 in 2.0 mi NE 8.1 mph - 0.11 in Rain Rain
4:56 PM 39.0 °F 36.8 °F 37.0 °F 93% 29.46 in 3.0 mi ENE 3.5 mph - 0.12 in Rain Light Rain
5:10 PM 39.2 °F 35.0 °F 37.4 °F 93% 29.43 in 2.0 mi NNE 5.8 mph - 0.02 in Rain Rain
5:23 PM 39.2 °F 37.0 °F 37.4 °F 93% 29.43 in 3.0 mi ENE 3.5 mph - 0.04 in Rain Light Rain
5:56 PM 39.0 °F - 36.0 °F 89% 29.44 in 3.0 mi Calm Calm - 0.05 in Rain Light Rain
6:47 PM 39.2 °F 35.9 °F 37.4 °F 93% 29.42 in 3.0 mi ESE 4.6 mph - 0.01 in Rain Light Rain
6:56 PM 39.0 °F - 37.0 °F 93% 29.43 in 3.0 mi Calm Calm - 0.01 in   Overcast
7:09 PM 39.2 °F 37.0 °F 37.4 °F 93% 29.43 in 2.0 mi ESE 3.5 mph - 0.00 in   Light Drizzle
7:21 PM 39.2 °F 35.9 °F 37.4 °F 93% 29.43 in 1.8 mi SE 4.6 mph - 0.00 in   Light Drizzle
7:54 PM 39.2 °F 35.9 °F 37.4 °F 93% 29.44 in 3.0 mi SSE 4.6 mph - 0.01 in Rain Light Rain
7:56 PM 39.0 °F 35.7 °F 37.9 °F 96% 29.44 in 3.0 mi South 4.6 mph - 0.01 in   Overcast
8:56 PM 39.9 °F 35.8 °F 37.9 °F 93% 29.45 in 6.0 mi SSW 5.8 mph - 0.00 in Rain Light Rain
9:21 PM 39.2 °F 35.0 °F 37.4 °F 93% 29.44 in 8.0 mi SSW 5.8 mph - 0.00 in   Overcast
9:56 PM 41.0 °F 33.1 °F 37.9 °F 89% 29.46 in 6.0 mi WSW 15.0 mph - 0.01 in Rain Light Rain
10:56 PM 37.9 °F 30.0 °F 35.1 °F 89% 29.48 in 9.0 mi WSW 12.7 mph 25.3 mph 0.01 in Rain Light Rain
11:54 PM 37.4 °F 29.8 °F 33.8 °F 87% 29.49 in 10.0 mi WSW 11.5 mph 23.0 mph 0.00 in   Overcast
11:56 PM 37.0 °F 28.9 °F 33.1 °F 86% 29.50 in 10.0 mi SW 12.7 mph - 0.00 in   Overcast